Time,TemperatureF,DewpointF,PressureIn,WindDirection,WindDirectionDegrees,WindSpeedMPH,WindSpeedGustMPH,Humidity,HourlyPrecipIn,Conditions,Clouds,dailyrainin,SoftwareType,DateUTC
2013-03-03 00:00:00,33.6,25.2,29.63,WNW,300,1.0,3.0,71,0.00,,OVC045,0.00,VWS V14.01,2013-03-03 05:00:00,
2013-03-03 00:05:00,33.5,25.1,29.63,West,278,3.0,6.0,71,0.00,,OVC043,0.00,VWS V14.01,2013-03-03 05:05:00,
2013-03-03 00:10:00,33.5,25.5,29.63,West,275,1.0,6.0,72,0.00,,OVC043,0.00,VWS V14.01,2013-03-03 05:10:00,
2013-03-03 00:15:00,33.4,25.4,29.63,North,350,4.0,6.0,72,0.00,,OVC043,0.00,VWS V14.01,2013-03-03 05:15:00,
2013-03-03 00:20:00,33.4,25.4,29.63,NNW,332,2.0,6.0,72,0.00,,OVC043,0.00,VWS V14.01,2013-03-03 05:20:00,
2013-03-03 00:25:00,33.3,25.3,29.63,WNW,297,1.0,6.0,72,0.00,,OVC043,0.00,VWS V14.01,2013-03-03 05:25:00,
2013-03-03 00:30:00,33.2,25.2,29.63,WNW,296,2.0,6.0,72,0.00,,OVC043,0.00,VWS V14.01,2013-03-03 05:30:00,
2013-03-03 00:35:00,33.2,25.2,29.63,WNW,300,2.0,6.0,72,0.00,,OVC043,0.00,VWS V14.01,2013-03-03 05:35:00,
2013-03-03 00:40:00,33.1,25.4,29.63,WNW,290,0.0,6.0,73,0.00,,OVC043,0.00,VWS V14.01,2013-03-03 05:40:00,
2013-03-03 00:45:00,33.1,25.1,29.63,WNW,295,1.0,6.0,72,0.00,,OVC043,0.00,VWS V14.01,2013-03-03 05:45:00,
2013-03-03 00:50:00,33.1,25.1,29.63,WNW,290,0.0,6.0,72,0.00,,OVC043,0.00,VWS V14.01,2013-03-03 05:50:00,
2013-03-03 00:55:00,33.0,25.0,29.63,NW,309,1.0,6.0,72,0.00,,OVC043,0.00,VWS V14.01,2013-03-03 05:55:00,
2013-03-03 01:00:00,32.9,25.2,29.63,NW,321,0.0,2.0,73,0.00,,OVC043,0.00,VWS V14.01,2013-03-03 06:00:00,
2013-03-03 01:05:00,32.9,25.2,29.63,NNW,331,2.0,3.0,73,0.00,,OVC045,0.00,VWS V14.01,2013-03-03 06:05:00,
2013-03-03 01:10:00,32.9,25.2,29.63,NW,307,0.0,3.0,73,0.00,,OVC045,0.00,VWS V14.01,2013-03-03 06:10:00,
2013-03-03 01:15:00,32.8,25.1,29.63,NNW,336,0.0,4.0,73,0.00,,OVC045,0.00,VWS V14.01,2013-03-03 06:15:00,
2013-03-03 01:20:00,32.8,25.1,29.63,NW,322,0.0,4.0,73,0.00,,OVC045,0.00,VWS V14.01,2013-03-03 06:20:00,
2013-03-03 01:25:00,32.8,25.4,29.63,WNW,294,2.0,4.0,74,0.00,,OVC045,0.00,VWS V14.01,2013-03-03 06:25:00,
2013-03-03 01:30:00,32.7,25.3,29.63,SE,142,0.0,5.0,74,0.00,,OVC045,0.00,VWS V14.01,2013-03-03 06:30:00,
2013-03-03 01:35:00,32.7,25.3,29.63,NNE,23,1.0,5.0,74,0.00,,OVC045,0.00,VWS V14.01,2013-03-03 06:35:00,
2013-03-03 01:40:00,32.7,25.3,29.63,NNW,329,0.0,5.0,74,0.00,,OVC045,0.00,VWS V14.01,2013-03-03 06:40:00,
2013-03-03 01:45:00,32.7,25.3,29.63,WNW,288,1.0,5.0,74,0.00,,OVC045,0.00,VWS V14.01,2013-03-03 06:45:00,
2013-03-03 01:50:00,32.6,25.2,29.62,West,273,1.0,5.0,74,0.00,,OVC045,0.00,VWS V14.01,2013-03-03 06:50:00,
2013-03-03 01:55:00,32.6,25.2,29.62,WNW,290,1.0,5.0,74,0.00,,OVC045,0.00,VWS V14.01,2013-03-03 06:55:00,
2013-03-03 02:00:00,32.5,25.1,29.62,WNW,288,5.0,6.0,74,0.00,,OVC045,0.00,VWS V14.01,2013-03-03 07:00:00,
2013-03-03 02:05:00,32.5,25.1,29.62,WNW,292,3.0,6.0,74,0.00,,OVC045,0.00,VWS V14.01,2013-03-03 07:05:00,
2013-03-03 02:10:00,32.5,25.1,29.62,WNW,302,2.0,6.0,74,0.00,,OVC045,0.00,VWS V14.01,2013-03-03 07:10:00,
2013-03-03 02:15:00,32.5,25.1,29.62,NW,307,1.0,6.0,74,0.00,,OVC045,0.00,VWS V14.01,2013-03-03 07:15:00,
2013-03-03 02:20:00,32.5,25.1,29.62,NW,309,1.0,6.0,74,0.00,,OVC045,0.00,VWS V14.01,2013-03-03 07:20:00,
2013-03-03 02:25:00,32.5,25.5,29.62,WNW,296,3.0,6.0,75,0.00,,OVC045,0.00,VWS V14.01,2013-03-03 07:25:00,
2013-03-03 02:30:00,32.4,25.0,29.62,WNW,296,2.0,6.0,74,0.00,,OVC045,0.00,VWS V14.01,2013-03-03 07:30:00,
2013-03-03 02:35:00,32.4,25.4,29.62,WNW,291,2.0,6.0,75,0.00,,OVC045,0.00,VWS V14.01,2013-03-03 07:35:00,
2013-03-03 02:40:00,32.3,25.3,29.62,West,280,2.0,8.0,75,0.00,,OVC045,0.00,VWS V14.01,2013-03-03 07:40:00,
2013-03-03 02:45:00,32.3,25.3,29.62,WNW,299,2.0,8.0,75,0.00,,OVC045,0.00,VWS V14.01,2013-03-03 07:45:00,
2013-03-03 02:50:00,32.3,25.3,29.62,WNW,294,2.0,8.0,75,0.00,,OVC045,0.00,VWS V14.01,2013-03-03 07:50:00,
2013-03-03 02:55:00,32.3,25.3,29.62,WNW,298,5.0,8.0,75,0.00,,OVC045,0.00,VWS V14.01,2013-03-03 07:55:00,
2013-03-03 03:00:00,32.3,25.3,29.61,WNW,288,5.0,5.0,75,0.00,,OVC045,0.00,VWS V14.01,2013-03-03 08:00:00,
2013-03-03 03:05:00,32.3,25.3,29.61,WNW,290,1.0,5.0,75,0.00,,OVC025,0.00,VWS V14.01,2013-03-03 08:05:00,
2013-03-03 03:10:00,32.3,25.3,29.61,NNW,343,0.0,5.0,75,0.00,,OVC025,0.00,VWS V14.01,2013-03-03 08:10:00,
2013-03-03 03:15:00,32.2,25.2,29.61,WNW,285,1.0,5.0,75,0.00,,OVC025,0.00,VWS V14.01,2013-03-03 08:15:00,
2013-03-03 03:20:00,32.2,25.2,29.61,NW,320,1.0,5.0,75,0.00,,OVC025,0.00,VWS V14.01,2013-03-03 08:20:00,
2013-03-03 03:25:00,32.2,25.2,29.61,WNW,294,1.0,5.0,75,0.00,,OVC025,0.00,VWS V14.01,2013-03-03 08:25:00,
2013-03-03 03:30:00,32.2,25.2,29.61,NW,304,0.0,5.0,75,0.00,,OVC025,0.00,VWS V14.01,2013-03-03 08:30:00,
2013-03-03 03:35:00,32.2,25.2,29.61,WNW,302,1.0,5.0,75,0.00,,OVC025,0.00,VWS V14.01,2013-03-03 08:35:00,
2013-03-03 03:40:00,32.1,25.1,29.61,NNW,341,0.0,5.0,75,0.00,,OVC025,0.00,VWS V14.01,2013-03-03 08:40:00,
2013-03-03 03:45:00,32.1,25.1,29.61,West,269,1.0,5.0,75,0.00,,OVC025,0.00,VWS V14.01,2013-03-03 08:45:00,
2013-03-03 03:50:00,32.1,25.1,29.61,NW,308,0.0,5.0,75,0.00,,OVC025,0.00,VWS V14.01,2013-03-03 08:50:00,
2013-03-03 03:55:00,32.1,25.1,29.61,WNW,298,1.0,5.0,75,0.00,,OVC025,0.00,VWS V14.01,2013-03-03 08:55:00,
2013-03-03 04:00:00,32.1,25.1,29.61,WNW,290,3.0,4.0,75,0.00,,OVC025,0.00,VWS V14.01,2013-03-03 09:00:00,
2013-03-03 04:05:00,32.1,25.1,29.61,WNW,288,1.0,4.0,75,0.00,,OVC023,0.00,VWS V14.01,2013-03-03 09:05:00,
2013-03-03 04:10:00,32.1,25.1,29.61,WNW,294,1.0,4.0,75,0.00,,OVC023,0.00,VWS V14.01,2013-03-03 09:10:00,
2013-03-03 04:15:00,32.1,25.1,29.61,NW,307,3.0,4.0,75,0.00,,OVC023,0.00,VWS V14.01,2013-03-03 09:15:00,
2013-03-03 04:20:00,32.1,25.1,29.61,WNW,293,1.0,4.0,75,0.00,,OVC023,0.00,VWS V14.01,2013-03-03 09:20:00,
2013-03-03 04:25:00,32.0,25.0,29.61,WNW,287,0.0,4.0,75,0.00,,OVC023,0.00,VWS V14.01,2013-03-03 09:25:00,
2013-03-03 04:30:00,32.0,25.0,29.61,WNW,295,2.0,4.0,75,0.00,,OVC023,0.00,VWS V14.01,2013-03-03 09:30:00,
2013-03-03 04:35:00,32.0,25.0,29.61,NNW,327,1.0,6.0,75,0.00,,OVC023,0.00,VWS V14.01,2013-03-03 09:35:00,
2013-03-03 04:40:00,32.0,25.0,29.61,NW,310,0.0,6.0,75,0.00,,OVC023,0.00,VWS V14.01,2013-03-03 09:40:00,
2013-03-03 04:45:00,32.0,25.0,29.61,WNW,291,2.0,6.0,75,0.00,,OVC023,0.00,VWS V14.01,2013-03-03 09:45:00,
2013-03-03 04:50:00,31.9,24.9,29.61,WNW,291,1.0,6.0,75,0.00,,OVC023,0.00,VWS V14.01,2013-03-03 09:50:00,
2013-03-03 04:55:00,31.9,24.9,29.61,West,281,1.0,6.0,75,0.00,,OVC023,0.00,VWS V14.01,2013-03-03 09:55:00,
2013-03-03 05:00:00,31.9,24.9,29.61,WNW,295,2.0,2.0,75,0.00,,OVC023,0.00,VWS V14.01,2013-03-03 10:00:00,
2013-03-03 05:05:00,31.8,24.8,29.61,WNW,296,2.0,3.0,75,0.00,,OVC044,0.00,VWS V14.01,2013-03-03 10:05:00,
2013-03-03 05:10:00,31.8,24.8,29.61,WNW,283,0.0,5.0,75,0.00,,OVC044,0.00,VWS V14.01,2013-03-03 10:10:00,
2013-03-03 05:15:00,31.8,24.8,29.61,WNW,297,2.0,5.0,75,0.00,,OVC044,0.00,VWS V14.01,2013-03-03 10:15:00,
2013-03-03 05:20:00,31.8,24.8,29.61,NNW,344,1.0,5.0,75,0.00,,OVC044,0.00,VWS V14.01,2013-03-03 10:20:00,
2013-03-03 05:25:00,31.8,24.8,29.61,WNW,302,1.0,5.0,75,0.00,,OVC044,0.00,VWS V14.01,2013-03-03 10:25:00,
2013-03-03 05:30:00,31.8,25.1,29.61,WNW,295,2.0,5.0,76,0.00,,OVC044,0.00,VWS V14.01,2013-03-03 10:30:00,
2013-03-03 05:35:00,31.7,25.0,29.61,NNE,21,0.0,5.0,76,0.00,,OVC044,0.00,VWS V14.01,2013-03-03 10:35:00,
2013-03-03 05:40:00,31.7,25.0,29.61,WNW,302,2.0,5.0,76,0.00,,OVC044,0.00,VWS V14.01,2013-03-03 10:40:00,
2013-03-03 05:45:00,31.6,24.9,29.61,NNE,19,3.0,6.0,76,0.00,,OVC044,0.00,VWS V14.01,2013-03-03 10:45:00,
2013-03-03 05:50:00,31.5,25.1,29.61,WNW,295,1.0,8.0,77,0.00,,OVC044,0.00,VWS V14.01,2013-03-03 10:50:00,
2013-03-03 05:55:00,31.4,25.4,29.61,WNW,291,1.0,8.0,78,0.00,,OVC044,0.00,VWS V14.01,2013-03-03 10:55:00,
2013-03-03 06:00:00,31.4,25.4,29.61,West,277,2.0,2.0,78,0.00,,OVC044,0.00,VWS V14.01,2013-03-03 11:00:00,
2013-03-03 06:05:00,31.3,25.2,29.61,West,267,0.0,4.0,78,0.00,,OVC025,0.00,VWS V14.01,2013-03-03 11:05:00,
2013-03-03 06:10:00,31.2,25.1,29.61,NNW,340,3.0,5.0,78,0.00,,OVC025,0.00,VWS V14.01,2013-03-03 11:10:00,
2013-03-03 06:15:00,31.0,25.3,29.62,WNW,288,3.0,6.0,79,0.00,,OVC025,0.00,VWS V14.01,2013-03-03 11:15:00,
2013-03-03 06:20:00,30.8,25.1,29.61,WNW,290,4.0,6.0,79,0.00,,OVC025,0.00,VWS V14.01,2013-03-03 11:20:00,
2013-03-03 06:25:00,30.8,25.4,29.62,WNW,290,1.0,7.0,80,0.00,,OVC025,0.00,VWS V14.01,2013-03-03 11:25:00,
2013-03-03 06:30:00,30.7,25.3,29.62,WNW,294,0.0,7.0,80,0.00,,OVC025,0.00,VWS V14.01,2013-03-03 11:30:00,
2013-03-03 06:35:00,30.7,25.3,29.62,North,5,2.0,7.0,80,0.00,,OVC025,0.00,VWS V14.01,2013-03-03 11:35:00,
2013-03-03 06:40:00,30.7,25.6,29.62,NW,325,1.0,7.0,81,0.00,,OVC025,0.00,VWS V14.01,2013-03-03 11:40:00,
2013-03-03 06:45:00,30.7,25.6,29.62,WNW,298,1.0,7.0,81,0.00,,OVC025,0.00,VWS V14.01,2013-03-03 11:45:00,
2013-03-03 06:50:00,30.7,25.6,29.62,WNW,296,2.0,7.0,81,0.00,,OVC025,0.00,VWS V14.01,2013-03-03 11:50:00,
2013-03-03 06:55:00,30.7,25.6,29.62,WNW,294,6.0,7.0,81,0.00,,OVC025,0.00,VWS V14.01,2013-03-03 11:55:00,
2013-03-03 07:00:00,30.7,25.6,29.62,NW,307,2.0,4.0,81,0.00,,OVC025,0.00,VWS V14.01,2013-03-03 12:00:00,
2013-03-03 07:05:00,30.7,25.6,29.62,NW,325,0.0,4.0,81,0.00,,OVC042,0.00,VWS V14.01,2013-03-03 12:05:00,
2013-03-03 07:10:00,30.8,25.7,29.62,WNW,298,3.0,4.0,81,0.00,,OVC042,0.00,VWS V14.01,2013-03-03 12:10:00,
2013-03-03 07:15:00,30.8,25.7,29.63,WNW,297,2.0,5.0,81,0.00,,OVC042,0.00,VWS V14.01,2013-03-03 12:15:00,
2013-03-03 07:20:00,30.8,25.7,29.62,ENE,69,3.0,5.0,81,0.00,,OVC042,0.00,VWS V14.01,2013-03-03 12:20:00,
2013-03-03 07:25:00,30.8,25.7,29.63,NW,321,1.0,8.0,81,0.00,,OVC042,0.00,VWS V14.01,2013-03-03 12:25:00,
2013-03-03 07:30:00,30.8,25.4,29.62,WNW,292,5.0,8.0,80,0.00,,OVC042,0.00,VWS V14.01,2013-03-03 12:30:00,
2013-03-03 07:35:00,30.8,25.7,29.63,WNW,295,2.0,8.0,81,0.00,,OVC042,0.00,VWS V14.01,2013-03-03 12:35:00,
2013-03-03 07:40:00,30.9,25.8,29.62,WNW,284,0.0,8.0,81,0.00,,OVC042,0.00,VWS V14.01,2013-03-03 12:40:00,
2013-03-03 07:45:00,31.1,26.0,29.63,WNW,291,1.0,8.0,81,0.00,,OVC042,0.00,VWS V14.01,2013-03-03 12:45:00,
2013-03-03 07:50:00,31.1,26.0,29.63,ENE,57,2.0,8.0,81,0.00,,OVC042,0.00,VWS V14.01,2013-03-03 12:50:00,
2013-03-03 07:55:00,31.2,26.1,29.62,WNW,283,3.0,8.0,81,0.00,,OVC042,0.00,VWS V14.01,2013-03-03 12:55:00,
2013-03-03 08:00:00,31.0,25.9,29.62,NW,320,2.0,5.0,81,0.00,,OVC042,0.00,VWS V14.01,2013-03-03 13:00:00,
2013-03-03 08:05:00,31.0,26.2,29.62,WNW,292,3.0,5.0,82,0.00,,OVC042,0.00,VWS V14.01,2013-03-03 13:05:00,
2013-03-03 08:10:00,31.0,26.5,29.62,WNW,295,3.0,5.0,83,0.00,,OVC042,0.00,VWS V14.01,2013-03-03 13:10:00,
2013-03-03 08:15:00,31.0,26.5,29.62,WNW,290,1.0,5.0,83,0.00,,OVC042,0.00,VWS V14.01,2013-03-03 13:15:00,
2013-03-03 08:20:00,30.9,26.6,29.62,WNW,291,4.0,6.0,84,0.00,,OVC042,0.00,VWS V14.01,2013-03-03 13:20:00,
2013-03-03 08:25:00,30.8,26.5,29.62,West,275,4.0,8.0,84,0.00,,OVC042,0.00,VWS V14.01,2013-03-03 13:25:00,
2013-03-03 08:30:00,31.0,27.0,29.62,WNW,295,5.0,8.0,85,0.00,,OVC042,0.00,VWS V14.01,2013-03-03 13:30:00,
2013-03-03 08:35:00,31.2,27.2,29.62,North,355,1.0,8.0,85,0.00,,OVC042,0.00,VWS V14.01,2013-03-03 13:35:00,
2013-03-03 08:40:00,31.4,27.4,29.62,NW,325,1.0,8.0,85,0.00,,OVC042,0.00,VWS V14.01,2013-03-03 13:40:00,
2013-03-03 08:45:00,31.6,27.6,29.62,NNW,341,1.0,8.0,85,0.00,,OVC042,0.00,VWS V14.01,2013-03-03 13:45:00,
2013-03-03 08:50:00,31.7,27.4,29.62,NW,315,4.0,8.0,84,0.00,,OVC042,0.00,VWS V14.01,2013-03-03 13:50:00,
2013-03-03 08:55:00,31.6,27.3,29.62,WNW,297,4.0,8.0,84,0.00,,OVC042,0.00,VWS V14.01,2013-03-03 13:55:00,
2013-03-03 09:00:00,31.7,27.1,29.62,NE,38,2.0,5.0,83,0.00,,OVC042,0.00,VWS V14.01,2013-03-03 14:00:00,
2013-03-03 09:05:00,32.0,27.7,29.62,WNW,302,1.0,6.0,84,0.00,,OVC065,0.00,VWS V14.01,2013-03-03 14:05:00,
2013-03-03 09:10:00,32.5,27.9,29.62,ENE,57,1.0,6.0,83,0.00,,OVC065,0.00,VWS V14.01,2013-03-03 14:10:00,
2013-03-03 09:15:00,32.7,27.8,29.62,South,190,1.0,6.0,82,0.00,,OVC065,0.00,VWS V14.01,2013-03-03 14:15:00,
2013-03-03 09:20:00,32.5,27.6,29.62,WSW,242,0.0,7.0,82,0.00,,OVC065,0.00,VWS V14.01,2013-03-03 14:20:00,
2013-03-03 09:25:00,33.1,28.5,29.62,WNW,288,2.0,7.0,83,0.00,,OVC065,0.00,VWS V14.01,2013-03-03 14:25:00,
2013-03-03 09:30:00,33.6,28.4,29.61,WNW,295,5.0,7.0,81,0.00,,OVC065,0.00,VWS V14.01,2013-03-03 14:30:00,
2013-03-03 09:35:00,33.3,28.1,29.61,WNW,296,2.0,7.0,81,0.00,,OVC065,0.00,VWS V14.01,2013-03-03 14:35:00,
2013-03-03 09:40:00,33.6,28.1,29.61,WNW,297,1.0,7.0,80,0.00,,OVC065,0.00,VWS V14.01,2013-03-03 14:40:00,
2013-03-03 09:45:00,33.9,28.1,29.61,ENE,75,1.0,7.0,79,0.00,,OVC065,0.00,VWS V14.01,2013-03-03 14:45:00,
2013-03-03 09:50:00,33.8,28.0,29.61,WNW,290,6.0,9.0,79,0.00,,OVC065,0.00,VWS V14.01,2013-03-03 14:50:00,
2013-03-03 09:55:00,33.6,28.1,29.61,NW,317,3.0,9.0,80,0.00,,OVC065,0.00,VWS V14.01,2013-03-03 14:55:00,
2013-03-03 10:00:00,33.6,28.1,29.61,NW,317,5.0,5.0,80,0.00,,OVC065,0.00,VWS V14.01,2013-03-03 15:00:00,
2013-03-03 10:05:00,33.5,28.3,29.61,North,350,3.0,7.0,81,0.00,,OVC075,0.00,VWS V14.01,2013-03-03 15:05:00,
2013-03-03 10:10:00,33.6,28.4,29.61,East,89,0.0,7.0,81,0.00,,OVC075,0.00,VWS V14.01,2013-03-03 15:10:00,
2013-03-03 10:15:00,33.7,28.5,29.60,WNW,290,4.0,8.0,81,0.00,,OVC075,0.00,VWS V14.01,2013-03-03 15:15:00,
2013-03-03 10:20:00,33.7,29.1,29.60,WNW,296,4.0,8.0,83,0.00,,OVC075,0.00,VWS V14.01,2013-03-03 15:20:00,
2013-03-03 10:25:00,34.0,28.8,29.60,WNW,284,3.0,8.0,81,0.00,,OVC075,0.00,VWS V14.01,2013-03-03 15:25:00,
2013-03-03 10:30:00,34.1,28.6,29.60,NW,325,2.0,8.0,80,0.00,,OVC075,0.00,VWS V14.01,2013-03-03 15:30:00,
2013-03-03 10:35:00,34.0,28.5,29.60,West,276,0.0,8.0,80,0.00,,OVC075,0.00,VWS V14.01,2013-03-03 15:35:00,
2013-03-03 10:40:00,33.9,28.7,29.60,WNW,290,2.0,8.0,81,0.00,,OVC075,0.00,VWS V14.01,2013-03-03 15:40:00,
2013-03-03 10:45:00,34.5,29.3,29.60,West,260,2.0,8.0,81,0.00,,OVC075,0.00,VWS V14.01,2013-03-03 15:45:00,
2013-03-03 10:50:00,34.8,29.0,29.60,WNW,288,3.0,8.0,79,0.00,,OVC075,0.00,VWS V14.01,2013-03-03 15:50:00,
2013-03-03 10:55:00,34.7,28.9,29.60,WNW,296,4.0,8.0,79,0.00,,OVC075,0.00,VWS V14.01,2013-03-03 15:55:00,
2013-03-03 11:00:00,34.9,29.7,29.60,WNW,292,1.0,2.0,81,0.00,,OVC075,0.00,VWS V14.01,2013-03-03 16:00:00,
2013-03-03 11:05:00,35.4,29.5,29.60,West,277,2.0,5.0,79,0.00,,,0.00,VWS V14.01,2013-03-03 16:05:00,
2013-03-03 11:10:00,35.8,30.2,29.60,WNW,290,2.0,5.0,80,0.00,,,0.00,VWS V14.01,2013-03-03 16:10:00,
2013-03-03 11:15:00,36.2,29.7,29.60,WNW,296,4.0,5.0,77,0.00,,,0.00,VWS V14.01,2013-03-03 16:15:00,
2013-03-03 11:20:00,36.2,30.3,29.60,West,261,0.0,5.0,79,0.00,,,0.00,VWS V14.01,2013-03-03 16:20:00,
2013-03-03 11:25:00,36.3,30.4,29.60,WNW,292,3.0,6.0,79,0.00,,,0.00,VWS V14.01,2013-03-03 16:25:00,
2013-03-03 11:30:00,35.8,29.9,29.60,WNW,288,2.0,6.0,79,0.00,,,0.00,VWS V14.01,2013-03-03 16:30:00,
2013-03-03 11:35:00,35.5,30.3,29.59,WNW,296,2.0,6.0,81,0.00,,,0.00,VWS V14.01,2013-03-03 16:35:00,
2013-03-03 11:40:00,35.6,30.4,29.59,West,281,2.0,7.0,81,0.00,,,0.00,VWS V14.01,2013-03-03 16:40:00,
2013-03-03 11:45:00,35.7,30.1,29.59,West,269,3.0,7.0,80,0.00,,,0.00,VWS V14.01,2013-03-03 16:45:00,
2013-03-03 11:50:00,35.7,29.8,29.59,East,84,4.0,7.0,79,0.00,,,0.00,VWS V14.01,2013-03-03 16:50:00,
2013-03-03 11:55:00,36.1,29.9,29.59,West,281,3.0,7.0,78,0.00,,,0.00,VWS V14.01,2013-03-03 16:55:00,
2013-03-03 12:00:00,36.5,30.3,29.59,WNW,286,2.0,3.0,78,0.00,,,0.00,VWS V14.01,2013-03-03 17:00:00,
2013-03-03 12:05:00,36.7,30.2,29.58,NW,311,3.0,6.0,77,0.00,,,0.00,VWS V14.01,2013-03-03 17:05:00,
2013-03-03 12:10:00,37.1,30.6,29.58,WSW,253,0.0,6.0,77,0.00,,,0.00,VWS V14.01,2013-03-03 17:10:00,
2013-03-03 12:15:00,37.4,30.5,29.58,WNW,296,3.0,6.0,76,0.00,,,0.00,VWS V14.01,2013-03-03 17:15:00,
2013-03-03 12:20:00,37.5,30.3,29.58,WNW,295,3.0,6.0,75,0.00,,,0.00,VWS V14.01,2013-03-03 17:20:00,
2013-03-03 12:25:00,37.9,30.7,29.58,West,265,3.0,6.0,75,0.00,,,0.00,VWS V14.01,2013-03-03 17:25:00,
2013-03-03 12:30:00,38.0,30.5,29.57,NW,319,3.0,6.0,74,0.00,,,0.00,VWS V14.01,2013-03-03 17:30:00,
2013-03-03 12:35:00,37.8,30.6,29.57,NW,306,1.0,8.0,75,0.00,,,0.00,VWS V14.01,2013-03-03 17:35:00,
2013-03-03 12:40:00,37.8,30.3,29.57,NNE,24,3.0,8.0,74,0.00,,,0.00,VWS V14.01,2013-03-03 17:40:00,
2013-03-03 12:45:00,37.7,30.2,29.57,WNW,289,0.0,8.0,74,0.00,,,0.00,VWS V14.01,2013-03-03 17:45:00,
2013-03-03 12:50:00,37.9,30.4,29.57,West,281,0.0,8.0,74,0.00,,,0.00,VWS V14.01,2013-03-03 17:50:00,
2013-03-03 12:55:00,38.2,30.3,29.57,WNW,294,6.0,8.0,73,0.00,,,0.00,VWS V14.01,2013-03-03 17:55:00,
2013-03-03 13:00:00,38.3,30.8,29.57,WSW,237,2.0,3.0,74,0.00,,,0.00,VWS V14.01,2013-03-03 18:00:00,
2013-03-03 13:05:00,38.5,30.6,29.56,SSW,205,1.0,3.0,73,0.00,,OVC017,0.00,VWS V14.01,2013-03-03 18:05:00,
2013-03-03 13:10:00,39.0,30.8,29.56,WNW,283,0.0,3.0,72,0.00,,OVC017,0.00,VWS V14.01,2013-03-03 18:10:00,
2013-03-03 13:15:00,39.4,31.1,29.56,WNW,294,4.0,4.0,72,0.00,,OVC017,0.00,VWS V14.01,2013-03-03 18:15:00,
2013-03-03 13:20:00,39.6,31.3,29.56,West,281,2.0,4.0,72,0.00,,OVC017,0.00,VWS V14.01,2013-03-03 18:20:00,
2013-03-03 13:25:00,39.6,31.0,29.56,West,281,2.0,6.0,71,0.00,,OVC017,0.00,VWS V14.01,2013-03-03 18:25:00,
2013-03-03 13:30:00,39.6,31.3,29.56,NNE,32,2.0,6.0,72,0.00,,OVC017,0.00,VWS V14.01,2013-03-03 18:30:00,
2013-03-03 13:35:00,39.5,30.9,29.56,NW,322,3.0,7.0,71,0.00,,OVC017,0.00,VWS V14.01,2013-03-03 18:35:00,
2013-03-03 13:40:00,39.5,30.9,29.56,WSW,242,0.0,7.0,71,0.00,,OVC017,0.00,VWS V14.01,2013-03-03 18:40:00,
2013-03-03 13:45:00,39.5,30.5,29.56,NE,51,2.0,7.0,70,0.00,,OVC017,0.00,VWS V14.01,2013-03-03 18:45:00,
2013-03-03 13:50:00,39.4,30.4,29.56,WNW,298,3.0,7.0,70,0.00,,OVC017,0.00,VWS V14.01,2013-03-03 18:50:00,
2013-03-03 13:55:00,39.4,30.8,29.56,NNW,346,2.0,7.0,71,0.00,,OVC017,0.00,VWS V14.01,2013-03-03 18:55:00,
2013-03-03 14:00:00,39.6,31.0,29.56,NNW,338,2.0,3.0,71,0.00,,OVC017,0.00,VWS V14.01,2013-03-03 19:00:00,
2013-03-03 14:05:00,39.7,31.1,29.56,NW,324,3.0,4.0,71,0.00,,OVC043,0.00,VWS V14.01,2013-03-03 19:05:00,
2013-03-03 14:10:00,39.4,30.8,29.56,WNW,302,0.0,6.0,71,0.00,,OVC043,0.00,VWS V14.01,2013-03-03 19:10:00,
2013-03-03 14:15:00,39.5,31.2,29.55,WNW,288,3.0,6.0,72,0.00,,OVC043,0.00,VWS V14.01,2013-03-03 19:15:00,
2013-03-03 14:20:00,39.3,31.0,29.55,NW,306,1.0,6.0,72,0.00,,OVC043,0.00,VWS V14.01,2013-03-03 19:20:00,
2013-03-03 14:25:00,39.5,31.6,29.55,NW,322,1.0,6.0,73,0.00,,OVC043,0.00,VWS V14.01,2013-03-03 19:25:00,
2013-03-03 14:30:00,39.4,31.1,29.55,WNW,291,6.0,6.0,72,0.00,,OVC043,0.00,VWS V14.01,2013-03-03 19:30:00,
2013-03-03 14:35:00,39.2,31.6,29.55,NNE,19,6.0,6.0,74,0.00,,OVC043,0.00,VWS V14.01,2013-03-03 19:35:00,
2013-03-03 14:40:00,39.0,31.8,29.55,WNW,289,1.0,7.0,75,0.00,,OVC043,0.00,VWS V14.01,2013-03-03 19:40:00,
2013-03-03 14:45:00,38.7,31.8,29.55,WNW,300,2.0,7.0,76,0.00,,OVC043,0.00,VWS V14.01,2013-03-03 19:45:00,
2013-03-03 14:50:00,38.5,31.6,29.56,ENE,61,0.0,7.0,76,0.00,,OVC043,0.00,VWS V14.01,2013-03-03 19:50:00,
2013-03-03 14:55:00,38.3,31.7,29.56,WNW,290,3.0,7.0,77,0.00,,OVC043,0.00,VWS V14.01,2013-03-03 19:55:00,
2013-03-03 15:00:00,38.4,31.2,29.55,WNW,289,5.0,5.0,75,0.00,,OVC043,0.00,VWS V14.01,2013-03-03 20:00:00,
2013-03-03 15:05:00,38.1,30.9,29.55,WNW,292,4.0,6.0,75,0.00,,OVC055,0.00,VWS V14.01,2013-03-03 20:05:00,
2013-03-03 15:10:00,38.0,31.1,29.55,West,271,2.0,6.0,76,0.00,,OVC055,0.00,VWS V14.01,2013-03-03 20:10:00,
2013-03-03 15:15:00,38.2,31.3,29.55,WNW,292,1.0,6.0,76,0.00,,OVC055,0.00,VWS V14.01,2013-03-03 20:15:00,
2013-03-03 15:20:00,38.1,30.9,29.55,NNW,332,1.0,6.0,75,0.00,,OVC055,0.00,VWS V14.01,2013-03-03 20:20:00,
2013-03-03 15:25:00,38.4,31.2,29.55,West,277,1.0,6.0,75,0.00,,OVC055,0.00,VWS V14.01,2013-03-03 20:25:00,
2013-03-03 15:30:00,38.5,31.0,29.55,WNW,295,4.0,6.0,74,0.00,,OVC055,0.00,VWS V14.01,2013-03-03 20:30:00,
2013-03-03 15:35:00,38.4,30.9,29.55,West,279,4.0,6.0,74,0.00,,OVC055,0.00,VWS V14.01,2013-03-03 20:35:00,
2013-03-03 15:40:00,38.5,31.0,29.55,West,272,1.0,6.0,74,0.00,,OVC055,0.00,VWS V14.01,2013-03-03 20:40:00,
2013-03-03 15:45:00,38.5,31.0,29.55,West,259,1.0,6.0,74,0.00,,OVC055,0.00,VWS V14.01,2013-03-03 20:45:00,
2013-03-03 15:50:00,38.5,31.0,29.55,West,260,2.0,6.0,74,0.00,,OVC055,0.00,VWS V14.01,2013-03-03 20:50:00,
2013-03-03 15:55:00,38.5,31.3,29.55,West,273,2.0,6.0,75,0.00,,OVC055,0.00,VWS V14.01,2013-03-03 20:55:00,
2013-03-03 16:00:00,38.3,31.1,29.55,WNW,295,1.0,2.0,75,0.00,,OVC055,0.00,VWS V14.01,2013-03-03 21:00:00,
2013-03-03 16:05:00,38.3,31.4,29.55,NW,313,1.0,4.0,76,0.00,,-RA,0.00,VWS V14.01,2013-03-03 21:05:00,
2013-03-03 16:10:00,38.2,32.0,29.55,WNW,295,2.0,4.0,78,0.00,,-RA,0.00,VWS V14.01,2013-03-03 21:10:00,
2013-03-03 16:15:00,38.0,32.1,29.55,WSW,257,1.0,4.0,79,0.00,,-RA,0.00,VWS V14.01,2013-03-03 21:15:00,
2013-03-03 16:20:00,37.8,32.2,29.56,SW,236,3.0,5.0,80,0.00,,-RA,0.00,VWS V14.01,2013-03-03 21:20:00,
2013-03-03 16:25:00,37.6,32.0,29.56,West,263,1.0,5.0,80,0.00,,-RA,0.00,VWS V14.01,2013-03-03 21:25:00,
2013-03-03 16:30:00,37.5,32.2,29.56,WNW,290,2.0,5.0,81,0.00,,-RA,0.00,VWS V14.01,2013-03-03 21:30:00,
2013-03-03 16:35:00,37.5,32.2,29.56,WSW,243,5.0,5.0,81,0.00,,-RA,0.00,VWS V14.01,2013-03-03 21:35:00,
2013-03-03 16:40:00,37.4,32.1,29.56,SW,217,0.0,5.0,81,0.00,,-RA,0.00,VWS V14.01,2013-03-03 21:40:00,
2013-03-03 16:45:00,37.3,32.3,29.56,West,273,1.0,5.0,82,0.00,,-RA,0.00,VWS V14.01,2013-03-03 21:45:00,
2013-03-03 16:50:00,37.2,32.5,29.56,West,278,0.0,5.0,83,0.00,,-RA,0.00,VWS V14.01,2013-03-03 21:50:00,
2013-03-03 16:55:00,37.1,32.4,29.56,SW,214,1.0,5.0,83,0.00,,-RA,0.00,VWS V14.01,2013-03-03 21:55:00,
2013-03-03 17:00:00,37.1,32.7,29.56,WNW,296,2.0,3.0,84,0.00,,-RA,0.00,VWS V14.01,2013-03-03 22:00:00,
2013-03-03 17:05:00,36.9,32.5,29.56,West,260,0.0,4.0,84,0.00,,-RA,0.00,VWS V14.01,2013-03-03 22:05:00,
2013-03-03 17:10:00,36.8,32.7,29.56,WSW,254,1.0,4.0,85,0.00,,-RA,0.00,VWS V14.01,2013-03-03 22:10:00,
2013-03-03 17:15:00,36.7,32.6,29.56,SW,236,1.0,4.0,85,0.00,,-RA,0.00,VWS V14.01,2013-03-03 22:15:00,
2013-03-03 17:20:00,36.4,32.3,29.56,SSW,200,1.0,4.0,85,0.00,,-RA,0.00,VWS V14.01,2013-03-03 22:20:00,
2013-03-03 17:25:00,36.3,32.5,29.56,WNW,288,1.0,4.0,86,0.00,,-RA,0.00,VWS V14.01,2013-03-03 22:25:00,
2013-03-03 17:30:00,36.1,32.3,29.56,WSW,241,0.0,4.0,86,0.00,,-RA,0.00,VWS V14.01,2013-03-03 22:30:00,
2013-03-03 17:35:00,35.9,32.1,29.57,SW,221,0.0,4.0,86,0.00,,-RA,0.00,VWS V14.01,2013-03-03 22:35:00,
2013-03-03 17:40:00,35.7,31.9,29.57,SW,236,0.0,4.0,86,0.00,,-RA,0.00,VWS V14.01,2013-03-03 22:40:00,
2013-03-03 17:45:00,35.6,32.1,29.57,SW,219,1.0,4.0,87,0.00,,-RA,0.00,VWS V14.01,2013-03-03 22:45:00,
2013-03-03 17:50:00,35.5,32.0,29.57,SSW,203,1.0,4.0,87,0.00,,-RA,0.00,VWS V14.01,2013-03-03 22:50:00,
2013-03-03 17:55:00,35.5,32.3,29.57,WSW,244,0.0,4.0,88,0.00,,-RA,0.00,VWS V14.01,2013-03-03 22:55:00,
2013-03-03 18:00:00,35.3,32.1,29.57,WNW,297,0.0,2.0,88,0.00,,-RA,0.00,VWS V14.01,2013-03-03 23:00:00,
2013-03-03 18:05:00,35.3,32.1,29.57,SW,215,3.0,3.0,88,0.00,,OVC025,0.00,VWS V14.01,2013-03-03 23:05:00,
2013-03-03 18:10:00,35.3,32.1,29.57,West,264,1.0,3.0,88,0.00,,OVC025,0.00,VWS V14.01,2013-03-03 23:10:00,
2013-03-03 18:15:00,35.3,31.8,29.57,West,280,1.0,3.0,87,0.00,,OVC025,0.00,VWS V14.01,2013-03-03 23:15:00,
2013-03-03 18:20:00,35.5,31.1,29.57,West,272,1.0,3.0,84,0.00,,OVC025,0.00,VWS V14.01,2013-03-03 23:20:00,
2013-03-03 18:25:00,35.5,30.6,29.58,West,274,0.0,5.0,82,0.00,,OVC025,0.00,VWS V14.01,2013-03-03 23:25:00,
2013-03-03 18:30:00,35.3,30.4,29.57,WSW,248,1.0,5.0,82,0.00,,OVC025,0.00,VWS V14.01,2013-03-03 23:30:00,
2013-03-03 18:35:00,35.3,30.7,29.58,West,281,3.0,5.0,83,0.00,,OVC025,0.00,VWS V14.01,2013-03-03 23:35:00,
2013-03-03 18:40:00,35.1,30.5,29.58,WSW,248,3.0,5.0,83,0.00,,OVC025,0.00,VWS V14.01,2013-03-03 23:40:00,
2013-03-03 18:45:00,35.1,30.5,29.58,WNW,294,2.0,5.0,83,0.00,,OVC025,0.00,VWS V14.01,2013-03-03 23:45:00,
2013-03-03 18:50:00,35.0,30.4,29.58,WNW,288,2.0,5.0,83,0.00,,OVC025,0.00,VWS V14.01,2013-03-03 23:50:00,
2013-03-03 18:55:00,34.9,30.6,29.58,WNW,286,0.0,5.0,84,0.00,,OVC025,0.00,VWS V14.01,2013-03-03 23:55:00,
2013-03-03 19:00:00,34.9,30.6,29.58,NW,304,1.0,2.0,84,0.00,,OVC025,0.00,VWS V14.01,2013-03-04 00:00:00,
2013-03-03 19:05:00,34.9,30.6,29.58,West,260,1.0,2.0,84,0.00,,OVC075,0.00,VWS V14.01,2013-03-04 00:05:00,
2013-03-03 19:10:00,34.9,30.3,29.58,West,281,1.0,2.0,83,0.00,,OVC075,0.00,VWS V14.01,2013-03-04 00:10:00,
2013-03-03 19:15:00,34.9,30.3,29.58,West,272,1.0,2.0,83,0.00,,OVC075,0.00,VWS V14.01,2013-03-04 00:15:00,
2013-03-03 19:20:00,34.9,30.3,29.58,NW,307,1.0,2.0,83,0.00,,OVC075,0.00,VWS V14.01,2013-03-04 00:20:00,
2013-03-03 19:25:00,34.9,30.0,29.58,WSW,242,2.0,2.0,82,0.00,,OVC075,0.00,VWS V14.01,2013-03-04 00:25:00,
2013-03-03 19:30:00,34.9,30.0,29.58,WSW,248,1.0,3.0,82,0.00,,OVC075,0.00,VWS V14.01,2013-03-04 00:30:00,
2013-03-03 19:35:00,34.9,30.0,29.58,SW,229,1.0,3.0,82,0.00,,OVC075,0.00,VWS V14.01,2013-03-04 00:35:00,
2013-03-03 19:40:00,34.9,30.0,29.58,SSW,209,1.0,3.0,82,0.00,,OVC075,0.00,VWS V14.01,2013-03-04 00:40:00,
2013-03-03 19:45:00,34.9,30.0,29.58,WNW,288,1.0,3.0,82,0.00,,OVC075,0.00,VWS V14.01,2013-03-04 00:45:00,
2013-03-03 19:50:00,34.9,30.0,29.58,WSW,253,0.0,3.0,82,0.00,,OVC075,0.00,VWS V14.01,2013-03-04 00:50:00,
2013-03-03 19:55:00,34.7,30.1,29.58,WSW,250,1.0,3.0,83,0.00,,OVC075,0.00,VWS V14.01,2013-03-04 00:55:00,
2013-03-03 20:00:00,34.6,30.3,29.59,WNW,295,0.0,3.0,84,0.00,,OVC075,0.00,VWS V14.01,2013-03-04 01:00:00,
2013-03-03 20:05:00,34.5,30.5,29.59,West,275,0.0,3.0,85,0.00,,,0.00,VWS V14.01,2013-03-04 01:05:00,
2013-03-03 20:10:00,34.3,30.3,29.59,West,265,0.0,4.0,85,0.00,,,0.00,VWS V14.01,2013-03-04 01:10:00,
2013-03-03 20:15:00,34.3,30.3,29.59,WNW,285,0.0,4.0,85,0.00,,,0.00,VWS V14.01,2013-03-04 01:15:00,
2013-03-03 20:20:00,34.2,30.5,29.59,WSW,243,0.0,4.0,86,0.00,,,0.00,VWS V14.01,2013-03-04 01:20:00,
2013-03-03 20:25:00,34.2,30.5,29.59,West,262,2.0,4.0,86,0.00,,,0.00,VWS V14.01,2013-03-04 01:25:00,
2013-03-03 20:31:00,34.0,30.3,29.59,WNW,302,1.0,4.0,86,0.00,,,0.00,VWS V14.01,2013-03-04 01:31:00,
2013-03-03 20:36:00,34.0,30.3,29.59,West,280,1.0,4.0,86,0.00,,,0.00,VWS V14.01,2013-03-04 01:36:00,
2013-03-03 20:41:00,33.9,30.2,29.59,WNW,288,1.0,4.0,86,0.00,,,0.00,VWS V14.01,2013-03-04 01:41:00,
2013-03-03 20:46:00,33.9,30.2,29.59,WNW,303,0.0,4.0,86,0.00,,,0.00,VWS V14.01,2013-03-04 01:46:00,
2013-03-03 20:51:00,33.9,30.2,29.59,SW,215,1.0,4.0,86,0.00,,,0.00,VWS V14.01,2013-03-04 01:51:00,
2013-03-03 20:56:00,34.0,30.0,29.59,WNW,284,0.0,4.0,85,0.00,,,0.00,VWS V14.01,2013-03-04 01:56:00,
2013-03-03 21:01:00,34.1,29.5,29.59,NNW,333,1.0,3.0,83,0.00,,,0.00,VWS V14.01,2013-03-04 02:01:00,
2013-03-03 21:06:00,34.5,28.4,29.59,WNW,287,4.0,8.0,78,0.00,,,0.00,VWS V14.01,2013-03-04 02:06:00,
2013-03-03 21:11:00,34.8,28.3,29.59,NW,307,3.0,10.0,77,0.00,,,0.00,VWS V14.01,2013-03-04 02:11:00,
2013-03-03 21:16:00,35.0,27.9,29.59,NW,313,2.0,10.0,75,0.00,,,0.00,VWS V14.01,2013-03-04 02:16:00,
2013-03-03 21:21:00,35.1,28.0,29.59,NW,325,2.0,10.0,75,0.00,,,0.00,VWS V14.01,2013-03-04 02:21:00,
2013-03-03 21:26:00,35.1,27.7,29.59,WNW,295,5.0,10.0,74,0.00,,,0.00,VWS V14.01,2013-03-04 02:26:00,
2013-03-03 21:31:00,35.1,27.7,29.59,NNW,343,2.0,10.0,74,0.00,,,0.00,VWS V14.01,2013-03-04 02:31:00,
2013-03-03 21:36:00,35.1,27.7,29.59,NW,311,3.0,10.0,74,0.00,,,0.00,VWS V14.01,2013-03-04 02:36:00,
2013-03-03 21:41:00,35.0,27.6,29.59,WNW,287,2.0,10.0,74,0.00,,,0.00,VWS V14.01,2013-03-04 02:41:00,
2013-03-03 21:46:00,35.0,27.9,29.59,NW,306,1.0,10.0,75,0.00,,,0.00,VWS V14.01,2013-03-04 02:46:00,
2013-03-03 21:51:00,35.0,27.6,29.58,WNW,297,9.0,10.0,74,0.00,,,0.00,VWS V14.01,2013-03-04 02:51:00,
2013-03-03 21:56:00,34.9,27.5,29.58,WNW,297,2.0,10.0,74,0.00,,,0.00,VWS V14.01,2013-03-04 02:56:00,
2013-03-03 22:01:00,34.9,27.1,29.58,WNW,290,6.0,6.0,73,0.00,,,0.00,VWS V14.01,2013-03-04 03:01:00,
2013-03-03 22:06:00,34.9,27.1,29.58,NNW,338,3.0,9.0,73,0.00,,,0.00,VWS V14.01,2013-03-04 03:06:00,
2013-03-03 22:11:00,34.8,27.0,29.58,WNW,288,1.0,9.0,73,0.00,,,0.00,VWS V14.01,2013-03-04 03:11:00,
2013-03-03 22:16:00,34.8,27.0,29.58,WNW,297,3.0,9.0,73,0.00,,,0.00,VWS V14.01,2013-03-04 03:16:00,
2013-03-03 22:21:00,34.7,26.6,29.58,West,279,6.0,9.0,72,0.00,,,0.00,VWS V14.01,2013-03-04 03:21:00,
2013-03-03 22:26:00,34.7,26.6,29.58,WNW,288,1.0,9.0,72,0.00,,,0.00,VWS V14.01,2013-03-04 03:26:00,
2013-03-03 22:31:00,34.7,26.6,29.58,WNW,299,3.0,9.0,72,0.00,,,0.00,VWS V14.01,2013-03-04 03:31:00,
2013-03-03 22:36:00,34.7,26.3,29.58,WSW,256,2.0,9.0,71,0.00,,,0.00,VWS V14.01,2013-03-04 03:36:00,
2013-03-03 22:41:00,34.6,26.2,29.58,WNW,301,3.0,9.0,71,0.00,,,0.00,VWS V14.01,2013-03-04 03:41:00,
2013-03-03 22:46:00,34.5,26.1,29.58,WNW,290,1.0,9.0,71,0.00,,,0.00,VWS V14.01,2013-03-04 03:46:00,
2013-03-03 22:51:00,34.4,26.0,29.58,NNW,328,8.0,9.0,71,0.00,,,0.00,VWS V14.01,2013-03-04 03:51:00,
2013-03-03 22:56:00,34.3,25.9,29.58,WNW,284,3.0,9.0,71,0.00,,,0.00,VWS V14.01,2013-03-04 03:56:00,
2013-03-03 23:01:00,34.2,25.8,29.58,West,281,1.0,6.0,71,0.00,,,0.00,VWS V14.01,2013-03-04 04:01:00,
2013-03-03 23:06:00,34.1,25.7,29.58,NNW,341,7.0,8.0,71,0.00,,,0.00,VWS V14.01,2013-03-04 04:06:00,
2013-03-03 23:11:00,34.1,26.0,29.58,NNW,336,6.0,8.0,72,0.00,,,0.00,VWS V14.01,2013-03-04 04:11:00,
2013-03-03 23:16:00,34.1,26.0,29.58,WNW,292,0.0,8.0,72,0.00,,,0.00,VWS V14.01,2013-03-04 04:16:00,
2013-03-03 23:21:00,34.1,26.4,29.58,WNW,293,2.0,8.0,73,0.00,,,0.00,VWS V14.01,2013-03-04 04:21:00,
2013-03-03 23:26:00,33.9,26.5,29.58,WNW,292,4.0,8.0,74,0.00,,,0.00,VWS V14.01,2013-03-04 04:26:00,
2013-03-03 23:31:00,33.8,26.4,29.58,WNW,283,2.0,8.0,74,0.00,,,0.00,VWS V14.01,2013-03-04 04:31:00,
2013-03-03 23:36:00,33.7,26.3,29.58,WNW,297,7.0,8.0,74,0.00,,,0.00,VWS V14.01,2013-03-04 04:36:00,
2013-03-03 23:41:00,33.7,26.3,29.58,WNW,292,2.0,8.0,74,0.00,,,0.00,VWS V14.01,2013-03-04 04:41:00,
2013-03-03 23:46:00,33.6,26.2,29.58,West,277,5.0,8.0,74,0.00,,,0.00,VWS V14.01,2013-03-04 04:46:00,
2013-03-03 23:51:00,33.5,26.1,29.58,West,279,3.0,8.0,74,0.00,,,0.00,VWS V14.01,2013-03-04 04:51:00,
2013-03-03 23:56:00,33.5,26.1,29.58,NW,314,4.0,8.0,74,0.00,,,0.00,VWS V14.01,2013-03-04 04:56:00,